Regional Weather Roundup
Issued by NWS

Home | Current Version | Previous Version | Text Only | Print | Product List | Glossary On
Versions: 1 2 3 4 5 6 7 8 9 10 11 12 13 14 15 16 17 18 19 20 21 22 23 24 25 26 27 28 29 30 31 32 33 34 35 36 37 38 39 40 41 42 43 44 45 46 47 48 49 50
000
ASCA42 TJSJ 012310
RWRPR
PUERTO RICO/U.S. VIRGIN ISLANDS HOURLY WEATHER ROUNDUP
NATIONAL WEATHER SERVICE SAN JUAN PR
700 PM AST WED JUL 01 2015

PRZ001-004-020000-
PUERTO RICO

CITY           SKY/WX    TMP DP  RH WIND       PRES   REMARKS
SAN JUAN LMM   PTCLDY    82  73  74 E14       30.07R
AGUADILLA      CLEAR     81  73  78 E20       30.07R
CEIBA          CLOUDY    82  73  74 E9        30.09R
$$

PRZ006-007-020000-
U.S. VIRGIN ISLANDS

CITY           SKY/WX    TMP DP  RH WIND       PRES   REMARKS
CHARLOTTE AMA  CLOUDY    82  72  69 E15G23    30.06R
CHRISTIANSTED  PTCLDY    82  72  69 E18       30.06R
$$

HOURLY WEATHER ROUNDUP FOR THE NEWS MEDIA

CITY           SKY/WX    TMP DP  RH WIND       PRES   REMARKS
ORLANDO        PTSUNNY   91  71  51 VRB5      30.07F HX  97
NEW YORK       PTSUNNY   84  60  44 W17G23    29.78S
NEWARK         PTSUNNY   83  61  47 W14       29.77S
CHICAGO        PTSUNNY   61  50  67 NE9       29.98R
HARTFORD       SUNNY     74  66  76 SW14G22   29.74R
BOSTON         MOSUNNY   80  64  58 SW16G23   29.70R
DALLAS         PTSUNNY   92  70  48 S14G28    29.93S HX  97
PHILADELPHIA   PTSUNNY   84  60  44 W12       29.82R
LOS ANGELES    PTSUNNY   73  63  70 W12       29.90F
WASHINGTON DC  PTSUNNY   83  65  54 NW7       29.84S


USA.gov is the U.S. government's official web portal to all federal, state and local government web resources and services.